Regional Weather Roundup
Issued by NWS

Home | Current Version | Previous Version | Text Only | Print | Product List | Glossary Off
Versions: 1 2 3 4 5 6 7 8 9 10 11 12 13 14 15 16 17 18 19 20 21 22 23 24 25 26 27 28 29 30 31 32 33 34 35 36 37 38 39 40 41 42 43 44 45 46 47 48 49 50

369
ASUS43 KLSX 291357
RWRMO

WEATHER SUMMARY FOR MISSOURI
NATIONAL WEATHER SERVICE SPRINGFIELD MO
900 AM CDT SAT APR 29 2017

NOTE: "FAIR" INDICATES FEW OR NO CLOUDS BELOW 12,000 FEET WITH NO
       SIGNIFICANT WEATHER AND/OR OBSTRUCTIONS TO VISIBILITY.
       CURRENT SKY AND/OR WEATHER CONDITIONS ARE NOT AVAILABLE FOR
       CHILLICOTHE AND FARMINGTON.

MOZ001>031-035>038-043-044-053-054-291500-
...NORTHERN AND WESTERN MISSOURI...

CITY           SKY/WX    TMP DP  RH WIND       PRES   REMARKS
KANSAS CTY INT LGT RAIN  45  44  97 N16G29    29.86F
LEE`S SUMMIT   CLOUDY    48  48 100 NE14G24   29.88F
ST JOSEPH      LGT RAIN  45  45 100 N14       29.94F
CHILLICOTHE      N/A     47  46  97 N12G18    29.97R

$$
MOZ066>068-077>081-088>096-101>105-291500-
...SOUTHWEST MISSOURI...

CITY           SKY/WX    TMP DP  RH WIND       PRES   REMARKS
SPRINGFIELD    TSTM      61  60  97 E14       29.71F
JOPLIN         TSTM      54  53  97 NE12G22   29.69F VSB 1
BRANSON        LGT RAIN  63  63 100 E9        29.72R VSB 1/8

$$
MOZ032>034-039>042-045>050-055>058-069>072-291500-
...CENTRAL MISSOURI...

CITY           SKY/WX    TMP DP  RH WIND       PRES   REMARKS
COLUMBIA       NOT AVBL
JEFFERSON CITY TSTM      59  56  89 E8        29.86F
ROLLA          LGT RAIN  58  32  37 E13       29.82F
SEDALIA        TSTM      53  53 100 N13       29.87S FOG
WHITEMAN AFB   TSTM      50  50 100 N17       29.92R FOG

$$
MOZ051-052-059>065-291500-
...EAST CENTRAL MISSOURI...

CITY           SKY/WX    TMP DP  RH WIND       PRES   REMARKS
ST LOUIS INTL  TSTM      59  56  89 E7        29.94R FOG

$$
MOZ072>076-082>087-097>100-106>115-291500-
...SOUTH CENTRAL AND SOUTHEAST MISSOURI...

CITY           SKY/WX    TMP DP  RH WIND       PRES   REMARKS
CAPE GIRARDEAU CLOUDY    68  62  81 NE14G26   29.93S
POPLAR BLUFF   CLOUDY    74  70  87 SE9G16    29.88R
WEST PLAINS    RAIN      63  61  94 E10       29.84R FOG

$$



USA.gov is the U.S. government's official web portal to all federal, state and local government web resources and services.